Find Kosmos-1109

NORAD ID: 11417 Int'l Des: 1979-058 Owner: PVO Country: SU operational
MEOELLIPTICALHEO_ELLIPTICALSEMI_SYNC

リアルタイム位置

3D地球を読み込み中...

Kosmos-1109について

説明を読み込み中...

次回通過

Passes for default location (London). Set your location on the main map for personalized predictions.

高度履歴

Loading altitude history...

軌道要素

1 11417U 79058A 26102.92439291 -.00000279 00000-0 00000-0 0 9992
2 11417 70.6508 194.7294 5972649 198.4910 124.1119 2.01413468232524
Epoch: Apr 12, 2026 • Age: 55 hours

現在のステータス

高度 9521.5 km
速度 5.93 km/s
衛星直下点 58.61°N, 62.74°E
打ち上げ日 Jun 27, 1979
運用期間 46.8 years
タイプ other

技術仕様

分類 Payload
質量 1250.00 kg
乾燥質量 1150.00 kg
総質量 1250.00 kg
長さ 4.00 m
直径 2.00 m
スパン 5.00 m
形状 Cyl + 2 Pan
製造者 NPOL/KOMET
バスタイプ Oko
フェーズステータス In Orbit
所有者/国 PVO/SU

Most Searched